EW6143 Weather Reports


time (UTC)temp
C
wind
direction
speed
KPH
gust
KPH
rain 1hr
cm
rain 24hr
cm
rain mn
cm
humidity
%
barometer
mb
20260507133034 12 0 0.0 4.8 0.00 0.25 0.00 85 1020.7
20260507131527 12 0 0.0 8.0 0.00 0.25 0.00 86 1020.6
20260507130038 12 84 0.0 4.8 0.00 0.25 0.00 86 1020.6
20260507124527 11 0 0.0 3.2 0.00 0.25 0.00 86 1020.3
20260507123026 11 0 0.0 1.6 0.00 0.25 0.00 85 1020.4
20260507121526 10 0 0.0 0.0 0.00 0.25 0.00 85 1020.2
20260507120029 10 0 0.0 0.0 0.00 0.25 0.00 84 1019.9
20260507114531 10 0 0.0 0.0 0.00 0.25 0.00 84 1019.9
20260507113028 10 0 0.0 0.0 0.00 0.25 0.00 84 1019.6
20260507111528 11 0 0.0 6.4 0.00 0.25 0.00 84 1019.6
20260507083028 12 188 3.2 11.3 0.00 0.25 0.00 79 1018.0
20260507081528 12 169 3.2 12.9 0.00 0.25 0.00 79 1017.8
20260507080028 12 141 4.8 16.1 0.00 0.25 0.00 80 1017.6
20260507074528 12 192 4.8 12.9 0.00 0.25 0.00 80 1017.5
20260507073031 13 172 6.4 14.5 0.00 0.25 0.00 79 1017.4
20260507071532 13 188 8.0 14.5 0.00 0.25 0.00 79 1017.6
20260507070032 13 172 6.4 11.3 0.00 0.25 0.00 79 1017.6
20260507064544 13 178 3.2 14.5 0.00 0.25 0.00 78 1017.4
20260507063030 13 187 4.8 9.7 0.00 0.25 0.00 78 1017.2
20260507061530 13 154 4.8 12.9 0.00 0.25 0.00 77 1017.3
20260507060028 13 176 6.4 14.5 0.00 0.25 0.00 76 1017.0
20260507054529 13 213 8.0 14.5 0.00 0.25 0.00 76 1017.2
20260507053028 14 204 6.4 14.5 0.00 0.25 0.00 75 1017.2
20260507051528 14 186 8.0 22.5 0.00 0.25 0.00 75 1017.3
20260507050038 14 202 6.4 14.5 0.00 0.25 0.00 76 1017.3
20260507044527 15 179 6.4 17.7 0.00 0.25 0.25 75 1017.2
20260507043027 15 160 9.7 19.3 0.00 0.25 0.25 75 1017.5
20260507041530 15 169 6.4 19.3 0.00 0.25 0.25 75 1017.7
20260507040029 15 139 9.7 17.7 0.00 0.25 0.25 75 1017.7
20260507034529 15 124 11.3 19.3 0.00 0.25 0.25 75 1017.7
20260507033028 15 147 8.0 19.3 0.00 0.25 0.25 75 1017.6
20260507031527 15 182 6.4 24.1 0.00 0.25 0.25 75 1017.5
20260507030030 15 175 9.7 22.5 0.00 0.25 0.25 75 1017.2
20260507024529 15 133 4.8 16.1 0.00 0.25 0.25 76 1017.0
20260507023026 15 191 8.0 19.3 0.00 0.25 0.25 76 1016.7
20260507021526 15 165 4.8 17.7 0.00 0.25 0.25 76 1016.5
20260507020031 15 165 9.7 17.7 0.00 0.25 0.25 76 1016.1
20260507014527 15 123 11.3 33.8 0.00 0.25 0.25 76 1016.0
20260507013027 15 155 8.0 19.3 0.00 0.25 0.25 77 1015.7
20260507011531 15 163 9.7 30.6 0.00 0.25 0.25 77 1015.4
20260507010038 15 204 6.4 19.3 0.00 0.25 0.25 77 1015.3
20260507004532 15 163 6.4 19.3 0.00 0.25 0.25 77 1015.2
20260507003028 15 146 9.7 24.1 0.00 0.25 0.25 77 1015.0
20260507000029 15 144 11.3 22.5 0.00 0.25 0.25 76 1014.7
20260506234530 15 223 8.0 17.7 0.00 0.25 0.25 76 1014.6
20260506233030 15 175 9.7 22.5 0.00 0.25 0.25 77 1014.6
20260506231528 15 211 8.0 20.9 0.00 0.25 0.25 77 1014.3
20260506230032 15 153 12.9 25.7 0.00 0.25 0.25 75 1013.9
20260506224535 15 111 4.8 19.3 0.00 0.25 0.25 75 1014.5
20260506223027 15 165 9.7 19.3 0.00 0.25 0.25 75 1014.3
20260506221529 15 162 9.7 19.3 0.00 0.25 0.25 75 1013.9
20260506220037 15 188 9.7 20.9 0.00 0.25 0.25 74 1013.9
20260506214528 15 144 9.7 20.9 0.00 0.25 0.25 74 1013.9
20260506213029 15 172 11.3 19.3 0.00 0.25 0.25 73 1013.6
20260506211534 16 88 6.4 16.1 0.00 0.25 0.25 72 1014.0
20260506210033 16 152 6.4 14.5 0.00 0.25 0.25 71 1013.9
20260506204556 16 157 4.8 19.3 0.00 0.25 0.25 74 1014.2
20260506203026 15 161 6.4 19.3 0.00 0.25 0.25 74 1014.1
20260506201536 15 141 9.7 16.1 0.00 0.25 0.25 75 1014.9
20260506200030 15 131 4.8 19.3 0.00 0.25 0.25 77 1014.6
20260506194528 14 70 4.8 14.5 0.00 0.25 0.25 79 1014.6
20260506193028 13 80 3.2 9.7 0.00 0.25 0.25 79 1014.9
20260506191528 13 89 4.8 12.9 0.00 0.25 0.25 78 1015.2
20260506190031 13 142 4.8 14.5 0.00 0.25 0.25 79 1015.0
20260506184527 13 130 8.0 19.3 0.00 0.25 0.25 79 1014.7
20260506183025 13 139 8.0 16.1 0.00 0.25 0.25 80 1013.8
20260506181528 13 150 12.9 25.7 0.00 0.25 0.25 81 1013.3
20260506180033 12 178 9.7 22.5 0.00 0.25 0.25 82 1013.3
20260506174533 12 136 8.0 20.9 0.00 0.25 0.25 82 1014.0
20260506173028 12 153 8.0 24.1 0.00 0.25 0.25 82 1014.6
20260506171539 12 170 6.4 20.9 0.00 0.25 0.25 82 1014.8
20260506170027 12 161 9.7 24.1 0.00 0.25 0.25 82 1014.3
20260506164528 12 159 9.7 24.1 0.03 0.25 0.25 82 1014.8
20260506163028 12 119 8.0 16.1 0.25 0.25 0.25 82 1015.0
20260506161532 12 0 3.2 14.5 0.25 0.25 0.25 83 1015.1
20260506160032 12 280 3.2 19.3 0.25 0.25 0.25 82 1014.6
20260506154533 12 167 12.9 24.1 0.23 0.23 0.23 79 1014.0
20260506153027 12 0 1.6 14.5 0.00 0.00 0.00 77 1016.5
20260506151533 12 73 4.8 16.1 0.00 0.00 0.00 77 1015.3
20260506150028 12 232 3.2 22.5 0.00 0.00 0.00 77 1015.0
20260506144539 12 96 4.8 16.1 0.00 0.00 0.00 77 1015.1
20260506143028 12 146 9.7 17.7 0.00 0.00 0.00 77 1014.7
20260506141530 12 117 8.0 19.3 0.00 0.00 0.00 76 1014.4
20260506140033 12 146 8.0 17.7 0.00 0.00 0.00 76 1014.0
20260506134528 12 89 6.4 24.1 0.00 0.00 0.00 76 1014.0